COSMOS 2251 DEB, 34784

Orbit data source: Space-Track

COSMOS 2251 DEB, 34784 is space debris in LEO originally from a launch on Wed, 16 Jun 1993 UTC launched from the Plesetsk Missile And Space Complex (PKMTR). The debris from Iridium 33, an American commercial communications satellite, has been tracked extensively since its accidental collision with the defunct Russian satellite Cosmos 2251 in 2009. This event, occurring at high speed in low Earth orbit (LEO), generated thousands of pieces of space debris, significantly increasing the risk of further collisions. The Iridium 33 debris cloud has impacted space traffic management and orbital debris mitigation strategies, making it a subject of ongoing study in space situational awareness.

Loading next visibility...
Identifier
34784, 1993-036AAM
Orbit
LEO
Country
Flag of CISCIS
Related business
Manufacturer
Unknown
Mission
Spacecraft
Bus & Motor
Unknown
Mass
Unknown
Launch date (UTC)
1993-06-16 (33 years ago)
Launch vehicle
Unknown
Launch site
Plesetsk Missile And Space Complex (PKMTR)
Object type
Payload
Rocket body
Debris
Shape & HBR
Unknown shape, 0.1 m
Radar Cross Section
Small (<0.1 m²)

Expand to show TLE details & history
Last TLE update: 16 hours ago

TLE from 16 hours ago
0 COSMOS 2251 DEB
1 34784U 93036AAM 26265.08611352  .00000837  00000-0  17068-3 0  9997
2 34784  74.0055 141.4470 0050871 239.5091 120.1047 14.61885849926747
Epoch: 2026-09-22T02:04Z
TLE epoch observation values (Epoch: 2026-09-22T02:04:00.208Z)
Latitude
-0.00004°
Longitude
109.48948°
Altitude
707.899 km
Speed
7.492 km/s
True Right ascension
09h 25m 47s
True Declination
0° 00' 00"
Sunlit
Object was in daylight at epoch
Visualization orbit readout
Latitude
Unknown
Longitude
Unknown
Altitude
Unknown
Speed
Unknown
Apparent Right ascension
Unknown
Apparent Declination
Unknown
Sunlit
N/A
Visualization observer readout
Local Sidereal Time
11:35:58
Azimuth
Unknown
Elevation
Unknown
Doppler factor
Unknown
Orbital elements
Apogee altitude
720.619 km
Perigee altitude
648.76 km
Semi-major axis
7,062.826 km
Eccentricity
0.00509
Inclination
74.0055°
RAAN
141.447°
Arg. of periapsis
239.5091°
True anomaly
120.6074°
Mean anomaly
120.1047°
Eccentric anomaly
120.35621°
Mean motion
3.65658 °/min
Orbital period
98.45 mins
BSTAR
0.00017068
Loading maneuver chart data...
Computing Atmospheric mass density...

Documentation

Showing up to 5 results
|